Location: Hawks Ness
(60.2333°N, 1.1667°W)
Time: 19:45:51
(UTC+00:00)

Exosat Rocket - Pass Details

Date: 22 October 2019
Orbit: 762 x 2513 km, 72.3° (Epoch: 21 November)

Event Time Altitude Azimuth Distance (km) Brightness Sun altitude
Exits shadow 03:42:00 43° 294° (WNW) 1,407 4.5 -24.9°
Maximum altitude 03:43:04 47° 321° (NW) 1,292 4.5 -24.8°
Drops below altitude 10° 03:48:24 10° 36° (NE) 2,464 6.9 -24.2°
Sets 03:50:40 0° 43° (NE) 3,315 7.8 -23.9°
